User: anonymous   Login
Location: Montague
(41.3030°N, 74.7940°W)
Time: 09:05:17
(UTC-04:00)
Language:

Cosmos 1461 - Orbit

View from above orbital plane
View from above orbital plane
View from above satellite
View from above satellite

Ground track
Ground track

The orbit data is extracted from the following two-line orbital elements,

1 14064U 83044A   15115.20248858  .00004228  00000-0  39200-3 0  9997
2 14064 065.0030 187.1787 0111492 346.0212 013.7821 14.91159642606338
Epoch (UTC): 25 April 2015 04:51:35
Eccentricity: 0.0111492
inclination: 65.0030°
perigee height: 516 km
apogee height: 672 km
right ascension of ascending node: 187.1787°
argument of perigee: 346.0212°
revolutions per day: 14.91159642
mean anomaly at epoch: 13.7821°
orbit number at epoch: 60633

The dashed part of the orbit path shows where the satellite is in the earth's shadow,  

DLR